Weather History for Hurlburt Field, FL

Change the Weather History Date:

Tuesday, November 19, 2013

  Actual Average Record
Temperature  
Mean Temperature 56 °F -  
Max Temperature 66 °F 68 °F 77 °F (2004)
Min Temperature 47 °F 49 °F 27 °F (2008)
Degree Days  
Heating Degree Days 8    
Growing Degree Days 6 (Base 50)    
Moisture  
Dew Point 39 °F    
Average Humidity 54    
Maximum Humidity 74    
Minimum Humidity 34    
Precipitation  
Precipitation 0.00 in - - ()
Sea Level Pressure  
Sea Level Pressure 30.06 in    
Wind  
Wind Speed 9 mph (NNE)    
Max Wind Speed 15 mph    
Max Gust Speed 22 mph    
Visibility 10 miles    
Events      
Averages and records for this station are not official NWS values.
T = Trace of Precipitation, MM = Missing Value Source: NWS Daily Summary

Daily Weather History Graph

Daily Weather History Graph

Search for Another Location

Airport:

Trip Planner

Search our weather history database for the weather conditions in past years. The results will help you decide how hot, cold, wet, or windy it might be!

Date:

Astronomy

Nov. 19, 2013 Rise Set
Actual Time 6:16 AM CST 4:48 PM CST
Civil Twilight 5:50 AM CST 5:13 PM CST
Nautical Twilight 5:21 AM CST 5:42 PM CST
Astronomical Twilight 4:52 AM CST 6:11 PM CST
Moon 6:39 PM CST (11/19) 7:53 AM CST (11/19)
Length of Visible Light 11h 23m
Length of Day
10h 31m
Waning Gibbous, 96% of the Moon is Illuminated
Nov 19
Waning Gibbous
Nov 25
Last Quarter
Dec 2
New
Dec 9
First Quarter
Dec 17
Full

Hourly Weather History & Observations

Time (CST) Temp. Dew Point Humidity Pressure Visibility Wind Dir Wind Speed Gust Speed Precip Events Conditions
12:58 AM 56.7 °F 37.8 °F 49% 30.03 in 10.0 mi NNE 11.5 mph - N/A   Clear
1:58 AM 54.1 °F 37.4 °F 53% 30.05 in 10.0 mi North 5.8 mph - N/A   Clear
2:58 AM 51.6 °F 38.5 °F 61% 30.05 in 10.0 mi NNE 6.9 mph - N/A   Clear
3:58 AM 51.8 °F 36.9 °F 57% 30.06 in 10.0 mi NNE 9.2 mph - N/A   Clear
4:58 AM 49.1 °F 39.0 °F 68% 30.06 in 10.0 mi North 9.2 mph - N/A   Clear
5:58 AM 47.8 °F 38.3 °F 70% 30.08 in 10.0 mi North 9.2 mph - N/A   Clear
6:58 AM 47.7 °F 38.8 °F 71% 30.08 in 10.0 mi North 10.4 mph - N/A   Clear
7:58 AM 52.2 °F 37.8 °F 58% 30.10 in 10.0 mi NNE 12.7 mph - N/A   Clear
8:58 AM 56.5 °F 34.0 °F 43% 30.10 in 10.0 mi NNE 13.8 mph 21.9 mph N/A   Clear
9:58 AM 59.2 °F 35.6 °F 41% 30.09 in 10.0 mi NNE 15.0 mph - N/A   Clear
10:58 AM 61.0 °F 36.7 °F 40% 30.07 in 10.0 mi NNE 13.8 mph - N/A   Clear
11:58 AM 63.7 °F 37.8 °F 38% 30.03 in 10.0 mi NNE 9.2 mph - N/A   Clear
12:58 PM 65.7 °F 37.9 °F 36% 30.02 in 10.0 mi NNE 6.9 mph - N/A   Clear
1:58 PM 66.4 °F 37.2 °F 34% 30.01 in 10.0 mi NNE 8.1 mph - 0.00 in   Clear
2:58 PM 65.7 °F 37.8 °F 36% 30.01 in 10.0 mi NNE 8.1 mph - N/A   Clear
3:58 PM 62.1 °F 40.1 °F 44% 30.02 in 10.0 mi NNE 6.9 mph - 0.00 in   Clear
4:58 PM 58.8 °F 41.4 °F 52% 30.03 in 10.0 mi NNE 5.8 mph - N/A   Clear
5:58 PM 57.9 °F 40.8 °F 53% 30.05 in 10.0 mi NNE 4.6 mph - N/A   Scattered Clouds
6:58 PM 55.8 °F 41.5 °F 59% 30.07 in 10.0 mi North 6.9 mph - N/A   Mostly Cloudy
7:58 PM 53.4 °F 41.5 °F 64% 30.07 in 10.0 mi North 5.8 mph - N/A   Clear
8:58 PM 52.3 °F 41.2 °F 66% 30.07 in 10.0 mi North 8.1 mph - N/A   Mostly Cloudy
9:58 PM 50.7 °F 40.6 °F 68% 30.07 in 10.0 mi NNE 6.9 mph - N/A   Clear
10:58 PM 49.6 °F 41.5 °F 74% 30.07 in 10.0 mi NNE 5.8 mph - N/A   Mostly Cloudy
11:58 PM 49.8 °F 39.4 °F 67% 30.06 in 10.0 mi NNE 5.8 mph - N/A   Clear